TimeEDT,TemperatureF,Dew PointF,Humidity,Sea Level PressureIn,VisibilityMPH,Wind Direction,Wind SpeedMPH,Gust SpeedMPH,PrecipitationIn,Events,Conditions,WindDirDegrees,DateUTC
12:15 AM,44.6,28.8,54,29.82,10.0,West,16.1,25.3,N/A,,Overcast,280,2012-10-06 04:15:00
12:34 AM,44.2,30.0,57,29.81,10.0,West,19.6,27.6,N/A,,Overcast,270,2012-10-06 04:34:00
12:54 AM,44.2,31.1,60,29.80,10.0,West,20.7,28.8,N/A,,Overcast,270,2012-10-06 04:54:00
1:15 AM,44.2,31.5,61,29.80,10.0,West,20.7,29.9,N/A,,Overcast,270,2012-10-06 05:15:00
1:34 AM,44.2,31.1,60,29.80,10.0,West,16.1,29.9,N/A,,Overcast,270,2012-10-06 05:34:00
1:54 AM,44.4,31.6,61,29.80,10.0,West,21.9,31.1,N/A,,Overcast,270,2012-10-06 05:54:00
2:14 AM,44.2,32.0,62,29.80,10.0,West,20.7,28.8,N/A,,Overcast,270,2012-10-06 06:14:00
2:55 AM,44.1,32.0,63,29.79,10.0,West,21.9,29.9,N/A,,Overcast,270,2012-10-06 06:55:00
3:14 AM,43.9,32.0,63,29.79,10.0,West,17.3,26.5,N/A,,Overcast,270,2012-10-06 07:14:00
3:34 AM,43.3,32.4,65,29.78,10.0,West,17.3,24.2,N/A,,Overcast,270,2012-10-06 07:34:00
3:55 AM,43.3,32.9,67,29.78,10.0,West,20.7,28.8,N/A,,Mostly Cloudy,270,2012-10-06 07:55:00
4:14 AM,43.5,33.3,67,29.78,10.0,West,19.6,28.8,N/A,,Overcast,270,2012-10-06 08:14:00
4:34 AM,43.2,33.8,70,29.78,10.0,West,17.3,27.6,N/A,,Overcast,280,2012-10-06 08:34:00
4:55 AM,42.3,34.2,73,29.78,10.0,West,17.3,25.3,N/A,,Overcast,280,2012-10-06 08:55:00
5:35 AM,42.1,34.2,74,29.78,10.0,West,18.4,25.3,N/A,,Overcast,280,2012-10-06 09:35:00
5:55 AM,42.1,34.5,75,29.78,10.0,West,15.0,23.0,N/A,,Overcast,280,2012-10-06 09:55:00
6:14 AM,41.9,34.7,76,29.78,10.0,WNW,13.8,24.2,N/A,,Overcast,290,2012-10-06 10:14:00
6:35 AM,41.5,34.2,75,29.78,10.0,WNW,15.0,21.9,N/A,,Mostly Cloudy,290,2012-10-06 10:35:00
6:55 AM,41.0,33.6,75,29.79,10.0,WNW,17.3,25.3,N/A,,Mostly Cloudy,290,2012-10-06 10:55:00
7:14 AM,40.8,34.0,77,29.80,10.0,West,17.3,23.0,N/A,,Scattered Clouds,280,2012-10-06 11:14:00
7:54 AM,39.4,33.6,80,29.80,10.0,WNW,13.8,24.2,N/A,,Mostly Cloudy,290,2012-10-06 11:54:00
8:14 AM,39.2,33.4,80,29.81,10.0,WNW,13.8,24.2,N/A,,Mostly Cloudy,300,2012-10-06 12:14:00
8:35 AM,39.7,33.1,77,29.82,10.0,WNW,18.4,24.2,N/A,,Mostly Cloudy,300,2012-10-06 12:35:00
8:54 AM,40.1,32.4,74,29.83,10.0,WNW,15.0,26.5,N/A,,Overcast,290,2012-10-06 12:54:00
9:14 AM,40.1,32.9,75,29.84,10.0,WNW,13.8,26.5,N/A,,Overcast,300,2012-10-06 13:14:00
9:35 AM,40.1,32.2,73,29.85,10.0,WNW,16.1,23.0,N/A,,Overcast,300,2012-10-06 13:35:00
9:54 AM,40.1,32.2,73,29.85,10.0,WNW,16.1,25.3,N/A,,Overcast,290,2012-10-06 13:54:00
10:14 AM,41.0,32.2,71,29.86,10.0,WNW,13.8,23.0,N/A,,Overcast,300,2012-10-06 14:14:00
10:35 AM,41.0,32.0,70,29.86,10.0,WNW,15.0,23.0,N/A,,Mostly Cloudy,290,2012-10-06 14:35:00
10:54 AM,42.1,31.3,66,29.87,10.0,WNW,13.8,26.5,N/A,,Mostly Cloudy,300,2012-10-06 14:54:00
11:14 AM,42.8,31.6,65,29.88,10.0,WNW,18.4,24.2,N/A,,Mostly Cloudy,290,2012-10-06 15:14:00
11:35 AM,43.0,30.7,62,29.88,10.0,WNW,17.3,23.0,N/A,,Overcast,290,2012-10-06 15:35:00
11:54 AM,41.4,31.8,69,29.89,10.0,NW,15.0,24.2,N/A,,Overcast,310,2012-10-06 15:54:00
12:14 PM,43.0,31.1,63,29.90,10.0,WNW,13.8,21.9,N/A,,Mostly Cloudy,290,2012-10-06 16:14:00
12:35 PM,43.5,30.6,60,29.90,10.0,WNW,16.1,21.9,N/A,,Scattered Clouds,300,2012-10-06 16:35:00
12:54 PM,44.6,32.2,62,29.91,10.0,NNW,9.2,21.9,N/A,,Mostly Cloudy,340,2012-10-06 16:54:00
1:14 PM,43.3,32.4,65,29.92,10.0,North,12.7,23.0,N/A,,Overcast,350,2012-10-06 17:14:00
1:35 PM,45.3,31.3,58,29.92,10.0,NNW,12.7,20.7,N/A,,Overcast,330,2012-10-06 17:35:00
1:54 PM,44.4,30.2,57,29.93,10.0,NNW,16.1,23.0,N/A,,Mostly Cloudy,330,2012-10-06 17:54:00
2:14 PM,43.9,29.3,57,29.93,10.0,NNW,13.8,20.7,N/A,,Mostly Cloudy,330,2012-10-06 18:14:00
2:35 PM,45.9,28.8,51,29.93,10.0,NW,15.0,24.2,N/A,,Scattered Clouds,320,2012-10-06 18:35:00
2:54 PM,45.3,28.6,52,29.94,10.0,NNW,11.5,26.5,N/A,,Mostly Cloudy,340,2012-10-06 18:54:00
3:14 PM,43.7,28.0,54,29.95,10.0,NW,15.0,21.9,N/A,,Mostly Cloudy,310,2012-10-06 19:14:00
3:35 PM,45.7,28.4,51,29.95,10.0,NW,16.1,21.9,N/A,,Mostly Cloudy,320,2012-10-06 19:35:00
3:54 PM,46.6,26.8,46,29.96,10.0,WNW,13.8,25.3,N/A,,Mostly Cloudy,300,2012-10-06 19:54:00
4:14 PM,43.0,28.6,57,29.97,10.0,NNW,13.8,21.9,N/A,,Mostly Cloudy,330,2012-10-06 20:14:00
4:35 PM,43.2,26.6,52,29.97,10.0,NW,13.8,21.9,N/A,,Scattered Clouds,310,2012-10-06 20:35:00
4:54 PM,44.4,25.0,46,29.97,10.0,WNW,12.7,27.6,N/A,,Scattered Clouds,300,2012-10-06 20:54:00
5:14 PM,44.2,24.6,46,29.98,10.0,WNW,13.8,21.9,N/A,,Mostly Cloudy,300,2012-10-06 21:14:00
5:35 PM,43.3,26.2,51,29.99,10.0,NW,11.5,18.4,N/A,,Mostly Cloudy,320,2012-10-06 21:35:00
5:54 PM,43.9,25.3,48,30.00,10.0,WNW,10.4,18.4,N/A,,Scattered Clouds,300,2012-10-06 21:54:00
6:14 PM,43.2,25.3,49,30.00,10.0,NW,16.1,21.9,N/A,,Mostly Cloudy,310,2012-10-06 22:14:00
6:35 PM,42.4,28.9,59,30.01,10.0,NW,17.3,25.3,N/A,,Mostly Cloudy,320,2012-10-06 22:35:00
7:14 PM,39.4,28.8,66,30.02,10.0,NW,13.8,23.0,N/A,,Scattered Clouds,310,2012-10-06 23:14:00
7:34 PM,39.2,28.6,66,30.03,10.0,NW,11.5,20.7,N/A,,Clear,310,2012-10-06 23:34:00
7:54 PM,38.5,29.3,70,30.04,10.0,NW,11.5,17.3,N/A,,Clear,320,2012-10-06 23:54:00
8:14 PM,38.5,30.0,72,30.05,10.0,WNW,11.5,18.4,N/A,,Clear,300,2012-10-07 00:14:00
8:34 PM,38.5,29.5,70,30.05,10.0,WNW,13.8,20.7,N/A,,Clear,300,2012-10-07 00:34:00
8:54 PM,37.9,30.0,73,30.05,10.0,NW,9.2,18.4,N/A,,Clear,320,2012-10-07 00:54:00
9:14 PM,37.4,30.0,75,30.06,10.0,NW,9.2,-,N/A,,Scattered Clouds,320,2012-10-07 01:14:00
9:34 PM,37.4,29.7,74,30.06,10.0,NW,10.4,-,N/A,,Clear,310,2012-10-07 01:34:00
9:54 PM,36.9,30.0,76,30.06,10.0,NW,5.8,-,N/A,,Clear,320,2012-10-07 01:54:00
10:14 PM,37.2,30.2,76,30.07,10.0,NW,9.2,-,N/A,,Scattered Clouds,310,2012-10-07 02:14:00
10:34 PM,37.6,29.7,73,30.07,10.0,WNW,10.4,18.4,N/A,,Scattered Clouds,290,2012-10-07 02:34:00
10:54 PM,37.4,30.0,75,30.07,10.0,WNW,9.2,18.4,N/A,,Clear,290,2012-10-07 02:54:00
11:14 PM,37.9,30.0,73,30.07,10.0,NW,8.1,-,N/A,,Scattered Clouds,310,2012-10-07 03:14:00
11:34 PM,38.1,30.2,73,30.07,10.0,NW,5.8,-,N/A,,Scattered Clouds,320,2012-10-07 03:34:00
11:54 PM,37.6,31.1,77,30.08,10.0,NW,8.1,-,N/A,,Overcast,310,2012-10-07 03:54:00